Language: 


Des rapports , des résumés tant et plus, au choix de chacun....


Données statistiques de la station
Quotidien Rapport Décembre 28, 2017 Unités:  Métrique    Anglais   les deux
« Précédent Jour
Suivant Jour »
Quotidien Hebdomadaire Mensuel Annuel Actuel
  Haut: Bas: Moyen:
Température: -17.8 °C -18.3 °C -16.6 °C
Pt de rosée: -17.8 °C -19.4 °C -17.4 °C
Humidité: Humidity % 71 % 89 %
Vitesse du vent: 0 km/h 0 km/h 11.1 km/h
Rafales: 0 km/h - -
Vent:- - West
Pression: 0 hPa 33660.2 hPa -
Précipitation: 0 mm    
Historical Graphs
 
 
Données statistiques pour Décembre 28, 2017
Heure Température Point de rosée Pression Vent Vitesse du vent Refales Humidité Pluie (taux horaire)
-17.8 °C -17.8 °C 0 hPa Calm     Humidity % 0 mm
00:01 -15.6 °C -16.7 °C 33660.2 hPa WNW 14 km/h 20.9 km/h 85 % 0 mm
00:03 -15.6 °C -16.7 °C 33660.2 hPa NNW 12.2 km/h 20.9 km/h 85 % 0 mm
00:07 -15.6 °C -16.7 °C 33660.2 hPa West 15.6 km/h 20.9 km/h 86 % 0 mm
00:10 -15.6 °C -16.7 °C 33660.2 hPa NW 14 km/h 27.7 km/h 85 % 0 mm
00:15 -15.7 °C -16.7 °C 33660.2 hPa WNW 15 km/h 27.7 km/h 85 % 0 mm
00:20 -15.7 °C -16.7 °C 33660.2 hPa SSW 12.7 km/h 22.5 km/h 85 % 0 mm
00:21 -15.7 °C -16.7 °C 33660.2 hPa SSW 12.7 km/h 22.5 km/h 85 % 0 mm
00:23 -15.7 °C -16.7 °C 33660.2 hPa NNW 14.5 km/h 22.5 km/h 85 % 0 mm
00:28 -15.7 °C -16.7 °C 33694.1 hPa NW 25.4 km/h 27.2 km/h 85 % 0 mm
00:29 -15.7 °C -16.7 °C 33694.1 hPa NW 18.7 km/h 27.2 km/h 85 % 0 mm
00:34 -15.8 °C -16.7 °C 33694.1 hPa West 10.3 km/h 31.9 km/h 85 % 0 mm
00:36 -15.8 °C -16.7 °C 33694.1 hPa WNW 16.9 km/h 31.9 km/h 85 % 0 mm
00:41 -15.8 °C -16.7 °C 33694.1 hPa West 7.6 km/h 31.9 km/h 85 % 0 mm
00:42 -15.8 °C -16.7 °C 33694.1 hPa WNW 12.2 km/h 25.4 km/h 86 % 0 mm
00:44 -15.8 °C -16.7 °C 33694.1 hPa West 16.3 km/h 22 km/h 86 % 0 mm
00:49 -15.9 °C -17.2 °C 33694.1 hPa WNW 9.8 km/h 20.9 km/h 86 % 0 mm
00:52 -15.9 °C -17.2 °C 33694.1 hPa West 8.9 km/h 20.9 km/h 86 % 0 mm
00:57 -16.1 °C -17.2 °C 33694.1 hPa WNW 8.9 km/h 20.9 km/h 86 % 0 mm
01:03 -16.1 °C -17.2 °C 33694.1 hPa West 7.6 km/h 20.9 km/h 86 % 0 mm
01:08 -16.2 °C -17.2 °C 33694.1 hPa West 14 km/h 20.9 km/h 87 % 0 mm
01:10 -16.2 °C -17.2 °C 33694.1 hPa NNW 9.3 km/h 19.2 km/h 87 % 0 mm
01:12 -16.3 °C -17.2 °C 33731.3 hPa West 12.2 km/h 19.2 km/h 87 % 0 mm
01:16 -16.3 °C -17.2 °C 33731.3 hPa SW 15 km/h 20.3 km/h 87 % 0 mm
01:19 -16.3 °C -17.2 °C 33731.3 hPa West 22.5 km/h 22.5 km/h 87 % 0 mm
01:24 -16.4 °C -17.2 °C 33731.3 hPa WNW 16.9 km/h 25.4 km/h 88 % 0 mm
01:29 -16.4 °C -17.2 °C 33731.3 hPa West 11.1 km/h 25.4 km/h 88 % 0 mm
01:34 -16.5 °C -17.2 °C 33731.3 hPa West 22 km/h 31.9 km/h 89 % 0 mm
01:37 -16.5 °C -17.2 °C 33731.3 hPa West 16.3 km/h 31.9 km/h 89 % 0 mm
01:38 -16.5 °C -17.2 °C 33731.3 hPa WNW 8.9 km/h 31.9 km/h 89 % 0 mm
01:43 -16.5 °C -17.2 °C 33731.3 hPa West 12.7 km/h 27.7 km/h 89 % 0 mm
01:48 -16.4 °C -17.2 °C 33731.3 hPa West 20.3 km/h 26.2 km/h 90 % 0 mm
01:49 -16.4 °C -17.2 °C 33731.3 hPa West 12.7 km/h 26.2 km/h 90 % 0 mm
01:51 -16.4 °C -17.2 °C 33731.3 hPa West 19.2 km/h 26.2 km/h 90 % 0 mm
01:52 -16.4 °C -17.2 °C 33731.3 hPa West 22 km/h 26.2 km/h 90 % 0 mm
01:57 -16.4 °C -16.7 °C 33751.6 hPa West 15 km/h 31.9 km/h 91 % 0 mm
02:02 -16.4 °C -16.7 °C 33751.6 hPa West 19.6 km/h 31.9 km/h 91 % 0 mm
02:05 -16.4 °C -16.7 °C 33751.6 hPa West 19.6 km/h 27.2 km/h 91 % 0 mm
02:07 -16.4 °C -16.7 °C 33751.6 hPa West 16.9 km/h 27.2 km/h 91 % 0 mm
02:11 -16.4 °C -16.7 °C 33751.6 hPa WSW 9.3 km/h 27.7 km/h 91 % 0 mm
02:16 -16.4 °C -16.7 °C 33751.6 hPa WNW 28.5 km/h 28.5 km/h 91 % 0 mm
02:21 -16.3 °C -16.7 °C 33751.6 hPa West 22.5 km/h 36 km/h 91 % 0 mm
02:22 -16.3 °C -16.7 °C 33751.6 hPa West 22.5 km/h 36 km/h 91 % 0 mm
02:28 -16.3 °C -16.7 °C 33751.6 hPa West 22 km/h 36 km/h 91 % 0 mm
02:34 -16.3 °C -16.7 °C 33751.6 hPa WNW 7.6 km/h 27.7 km/h 91 % 0 mm
02:35 -16.3 °C -16.7 °C 33751.6 hPa West 18.7 km/h 27.7 km/h 91 % 0 mm
02:40 -16.3 °C -16.7 °C 33751.6 hPa West 10.3 km/h 33.2 km/h 91 % 0 mm
02:47 -16.4 °C -17.2 °C 33751.6 hPa West 9.3 km/h 33.2 km/h 90 % 0 mm
02:52 -16.4 °C -17.2 °C 33751.6 hPa West 22 km/h 28.5 km/h 90 % 0 mm
02:53 -16.4 °C -17.2 °C 33751.6 hPa WNW 15.6 km/h 28.5 km/h 90 % 0 mm
02:58 -16.5 °C -17.2 °C 33751.6 hPa West 16.9 km/h 28.5 km/h 89 % 0 mm
02:59 -16.5 °C -17.2 °C 33751.6 hPa West 8.9 km/h 28.5 km/h 90 % 0 mm
03:04 -16.5 °C -17.2 °C 33751.6 hPa West 20.3 km/h 25.4 km/h 90 % 0 mm
03:05 -16.5 °C -17.2 °C 33751.6 hPa NNW 19.2 km/h 25.4 km/h 90 % 0 mm
03:10 -16.4 °C -17.2 °C 33751.6 hPa West 15.6 km/h 25.4 km/h 90 % 0 mm
03:14 -16.4 °C -17.2 °C 33751.6 hPa NNW 26.7 km/h 26.7 km/h 90 % 0 mm
03:19 -16.4 °C -17.2 °C 33751.6 hPa WSW 8.9 km/h 26.7 km/h 90 % 0 mm
03:20 -16.4 °C -17.2 °C 33751.6 hPa West 16.9 km/h 26.7 km/h 90 % 0 mm
03:21 -16.4 °C -17.2 °C 33751.6 hPa West 14 km/h 26.7 km/h 90 % 0 mm
03:25 -16.4 °C -17.2 °C 33751.6 hPa West 11.1 km/h 27.2 km/h 90 % 0 mm
03:31 -16.4 °C -17.2 °C 33751.6 hPa WNW 23 km/h 27.7 km/h 90 % 0 mm
03:36 -16.4 °C -17.2 °C 33751.6 hPa WSW 8.9 km/h 27.7 km/h 90 % 0 mm
03:37 -16.4 °C -17.2 °C 33751.6 hPa West 12.7 km/h 27.7 km/h 90 % 0 mm
03:42 -16.4 °C -17.2 °C 33731.3 hPa West 20.9 km/h 26.2 km/h 90 % 0 mm
03:45 -16.4 °C -17.2 °C 33731.3 hPa WSW 20.9 km/h 26.2 km/h 90 % 0 mm
03:47 -16.4 °C -17.2 °C 33731.3 hPa West 20.9 km/h 27.7 km/h 90 % 0 mm
03:53 -16.4 °C -16.7 °C 33731.3 hPa South 16.9 km/h 32.3 km/h 91 % 0 mm
03:54 -16.4 °C -16.7 °C 33731.3 hPa West 26.2 km/h 32.3 km/h 91 % 0 mm
03:59 -16.3 °C -16.7 °C 33751.6 hPa WSW 24.3 km/h 32.3 km/h 91 % 0 mm
04:00 -16.3 °C -16.7 °C 33751.6 hPa West 9.8 km/h 32.3 km/h 91 % 0 mm
04:03 -16.3 °C -16.7 °C 33751.6 hPa West 6.4 km/h 26.7 km/h 91 % 0 mm
04:08 -16.3 °C -16.7 °C 33751.6 hPa WSW 19.6 km/h 26.7 km/h 91 % 0 mm
04:14 -16.3 °C -16.7 °C 33751.6 hPa WSW 37.5 km/h 37.5 km/h 91 % 0 mm
04:19 -16.3 °C -16.7 °C 33751.6 hPa West 20.9 km/h 37.5 km/h 91 % 0 mm
04:24 -16.3 °C -17.2 °C 33751.6 hPa WSW 16.3 km/h 34.1 km/h 90 % 0 mm
04:29 -16.4 °C -17.2 °C 33788.9 hPa WSW 14.5 km/h 34.1 km/h 90 % 0 mm
04:31 -16.4 °C -17.2 °C 33788.9 hPa WSW 20.3 km/h 29 km/h 90 % 0 mm
04:33 -16.5 °C -17.2 °C 33788.9 hPa West 19.2 km/h 29 km/h 90 % 0 mm
04:37 -16.5 °C -17.2 °C 33788.9 hPa WNW 17.9 km/h 22.5 km/h 90 % 0 mm
04:42 -16.5 °C -17.2 °C 33788.9 hPa West 20.3 km/h 22.5 km/h 90 % 0 mm
04:44 -16.5 °C -17.2 °C 33788.9 hPa WSW 14.5 km/h 22 km/h 91 % 0 mm
04:45 -16.5 °C -17.2 °C 33788.9 hPa WSW 26.7 km/h 26.7 km/h 91 % 0 mm
04:50 -16.5 °C -17.2 °C 33788.9 hPa West 20.3 km/h 26.7 km/h 91 % 0 mm
04:51 -16.6 °C -17.2 °C 33788.9 hPa West 22 km/h 26.7 km/h 91 % 0 mm
04:57 -16.6 °C -17.2 °C 33788.9 hPa West 14 km/h 27.2 km/h 90 % 0 mm
04:58 -16.6 °C -17.2 °C 33788.9 hPa WSW 14 km/h 27.2 km/h 90 % 0 mm
05:03 -16.7 °C -17.2 °C 33788.9 hPa WSW 14.5 km/h 27.2 km/h 90 % 0 mm
05:09 -16.9 °C -17.8 °C 33788.9 hPa WSW 18.7 km/h 22 km/h 90 % 0 mm
05:11 -16.9 °C -17.8 °C 33788.9 hPa WSW 12.2 km/h 19.2 km/h 90 % 0 mm
05:16 -17 °C -17.8 °C 33788.9 hPa WSW 16.9 km/h 22 km/h 90 % 0 mm
05:20 -17.1 °C -17.8 °C 33788.9 hPa WSW 15 km/h 22 km/h 90 % 0 mm
05:21 -17.1 °C -17.8 °C 33788.9 hPa West 22.5 km/h 22.5 km/h 90 % 0 mm
05:22 -17.1 °C -17.8 °C 33788.9 hPa WSW 19.6 km/h 22.5 km/h 90 % 0 mm
05:27 -17.1 °C -17.8 °C 33788.9 hPa West 22 km/h 22.5 km/h 91 % 0 mm
05:28 -17.2 °C -17.8 °C 33788.9 hPa West 12.2 km/h 22.5 km/h 91 % 0 mm
05:33 -17.2 °C -17.8 °C 33788.9 hPa WSW 12.2 km/h 22 km/h 91 % 0 mm
05:34 -17.2 °C -17.8 °C 33788.9 hPa WSW 18.7 km/h 22 km/h 91 % 0 mm
05:39 -17.2 °C -17.8 °C 33788.9 hPa West 10.3 km/h 20.9 km/h 92 % 0 mm
05:40 -17.2 °C -17.8 °C 33788.9 hPa West 18.7 km/h 20.9 km/h 92 % 0 mm
05:45 -17.3 °C -17.8 °C 33788.9 hPa West 9.3 km/h 20.9 km/h 93 % 0 mm
05:47 -17.3 °C -17.8 °C 33788.9 hPa West 20.3 km/h 20.3 km/h 93 % 0 mm
05:52 -17.3 °C -17.8 °C 33788.9 hPa SSW 15.6 km/h 20.3 km/h 93 % 0 mm
05:53 -17.3 °C -17.8 °C 33788.9 hPa West 15.6 km/h 20.9 km/h 93 % 0 mm
05:58 -17.3 °C -17.8 °C 33788.9 hPa WSW 15.6 km/h 20.9 km/h 94 % 0 mm
05:59 -17.3 °C -17.8 °C 33788.9 hPa West 15 km/h 20.9 km/h 94 % 0 mm
06:00 -17.3 °C -17.8 °C 33788.9 hPa West 15.6 km/h 22 km/h 94 % 0 mm
06:04 -17.3 °C -17.8 °C 33788.9 hPa WSW 16.3 km/h 22 km/h 94 % 0 mm
06:09 -17.4 °C -17.8 °C 33788.9 hPa WSW 12.7 km/h 16.3 km/h 94 % 0 mm
06:14 -17.4 °C -17.8 °C 33788.9 hPa West 12.2 km/h 16.9 km/h 94 % 0 mm
06:17 -17.4 °C -17.8 °C 33788.9 hPa West 7.6 km/h 16.9 km/h 94 % 0 mm
06:20 -17.4 °C -17.8 °C 33788.9 hPa Calm   16.9 km/h 94 % 0 mm
06:21 -17.4 °C -17.8 °C 33788.9 hPa Calm   16.9 km/h 94 % 0 mm
06:24 -17.5 °C -17.8 °C 33788.9 hPa West 14.5 km/h 15.6 km/h 95 % 0 mm
06:29 -17.5 °C -17.8 °C 33788.9 hPa WSW 9.3 km/h 15.6 km/h 95 % 0 mm
06:33 -17.6 °C -17.8 °C 33788.9 hPa Calm   15.6 km/h 95 % 0 mm
06:38 -17.6 °C -17.8 °C 33788.9 hPa WSW 14.5 km/h 14.5 km/h 95 % 0 mm
06:43 -17.6 °C -17.8 °C 33822.8 hPa WSW 12.2 km/h 14.5 km/h 95 % 0 mm
06:49 -17.6 °C -17.8 °C 33822.8 hPa WSW 12.7 km/h 16.9 km/h 95 % 0 mm
06:54 -17.6 °C -17.8 °C 33822.8 hPa WSW 7.6 km/h 16.9 km/h 96 % 0 mm
06:58 -17.6 °C -17.8 °C 33822.8 hPa WSW 14 km/h 16.9 km/h 96 % 0 mm
07:03 -17.6 °C -17.8 °C 33822.8 hPa WSW 15.6 km/h 16.9 km/h 97 % 0 mm
07:06 -17.6 °C -17.8 °C 33822.8 hPa WSW 14.5 km/h 19.6 km/h 97 % 0 mm
07:11 -17.6 °C -17.8 °C 33856.6 hPa WSW 8 km/h 19.6 km/h 97 % 0 mm
07:13 -17.6 °C -17.8 °C 33856.6 hPa West 9.8 km/h 19.6 km/h 97 % 0 mm
07:17 -17.6 °C -17.8 °C 33856.6 hPa West 14.5 km/h 16.9 km/h 97 % 0 mm
07:19 -17.6 °C -17.8 °C 33856.6 hPa West 7.6 km/h 16.9 km/h 97 % 0 mm
07:24 -17.6 °C -17.8 °C 33856.6 hPa WSW 11.1 km/h 15.6 km/h 97 % 0 mm
07:27 -17.7 °C -17.8 °C 33822.8 hPa West 3.4 km/h 15.6 km/h 97 % 0 mm
07:32 -17.7 °C -17.8 °C 33822.8 hPa WNW 8.9 km/h 15.6 km/h 97 % 0 mm
07:36 -17.7 °C -17.8 °C 33822.8 hPa Calm   12.2 km/h 97 % 0 mm
07:41 -17.7 °C -17.8 °C 33822.8 hPa West 3.4 km/h 12.2 km/h 98 % 0 mm
07:42 -17.7 °C -17.8 °C 33822.8 hPa WSW 2.3 km/h 12.2 km/h 98 % 0 mm
07:47 -17.7 °C -17.8 °C 33822.8 hPa Calm   6.9 km/h 98 % 0 mm
07:51 -17.8 °C -18.3 °C 33822.8 hPa Calm   6.9 km/h 98 % 0 mm
07:56 -17.9 °C -18.3 °C 33822.8 hPa WSW 8.9 km/h 8.9 km/h 97 % 0 mm
08:00 -17.9 °C -18.3 °C 33822.8 hPa Calm   8.9 km/h 97 % 0 mm
08:02 -17.9 °C -18.3 °C 33822.8 hPa Calm   8.9 km/h 97 % 0 mm
08:07 -18 °C -18.3 °C 33822.8 hPa Calm   8 km/h 97 % 0 mm
08:12 -18.1 °C -18.9 °C 33822.8 hPa Calm   8 km/h 97 % 0 mm
08:13 -18.1 °C -18.9 °C 33822.8 hPa Calm   8 km/h 97 % 0 mm
08:18 -18.1 °C -18.9 °C 33822.8 hPa Calm   9.8 km/h 97 % 0 mm
08:20 -18.1 °C -18.3 °C 33822.8 hPa WSW 11.1 km/h 11.1 km/h 98 % 0 mm
08:25 -18 °C -18.3 °C 33822.8 hPa WSW 9.8 km/h 16.9 km/h 98 % 0 mm
08:30 -18 °C -18.3 °C 33822.8 hPa WSW 7.6 km/h 16.9 km/h 98 % 0 mm
08:32 -18 °C -18.3 °C 33822.8 hPa West 9.8 km/h 14.5 km/h 98 % 0 mm
08:37 -18 °C -18.3 °C 33822.8 hPa WSW 12.2 km/h 14 km/h 98 % 0 mm
08:42 -17.9 °C -18.3 °C 33856.6 hPa Calm   14 km/h 98 % 0 mm
08:43 -17.9 °C -18.3 °C 33856.6 hPa Calm   14 km/h 98 % 0 mm
08:45 -17.9 °C -18.3 °C 33856.6 hPa WSW 10.3 km/h 14 km/h 98 % 0 mm
08:50 -17.9 °C -18.3 °C 33856.6 hPa West 11.6 km/h 18.7 km/h 98 % 0 mm
08:55 -17.9 °C -18.3 °C 33856.6 hPa Calm   18.7 km/h 98 % 0 mm
08:57 -17.9 °C -18.3 °C 33856.6 hPa West 10.3 km/h 18.7 km/h 98 % 0 mm
08:58 -17.8 °C -18.3 °C 33856.6 hPa Calm   14.5 km/h 98 % 0 mm
09:03 -17.8 °C -18.3 °C 33856.6 hPa WNW 4.2 km/h 12.2 km/h 98 % 0 mm
09:05 -17.8 °C -18.3 °C 33856.6 hPa West 8.9 km/h 12.2 km/h 98 % 0 mm
09:10 -17.7 °C -17.8 °C 33856.6 hPa West 12.2 km/h 12.2 km/h 98 % 0 mm
09:15 -17.7 °C -17.8 °C 33856.6 hPa WSW 2.9 km/h 12.2 km/h 98 % 0 mm
09:17 -17.7 °C -17.8 °C 33856.6 hPa Calm   12.2 km/h 98 % 0 mm
09:22 -17.6 °C -17.2 °C 33856.6 hPa Calm   16.9 km/h 98 % 0 mm
09:25 -17.6 °C -17.2 °C 33856.6 hPa West 15.6 km/h 16.9 km/h 98 % 0 mm
09:27 -17.6 °C -17.2 °C 33890.5 hPa West 9.3 km/h 16.9 km/h 98 % 0 mm
09:32 -17.6 °C -17.2 °C 33890.5 hPa West 9.8 km/h 16.3 km/h 98 % 0 mm
09:34 -17.5 °C -17.2 °C 33890.5 hPa WSW 9.3 km/h 16.3 km/h 98 % 0 mm
09:39 -17.5 °C -17.2 °C 33890.5 hPa West 12.2 km/h 15.6 km/h 98 % 0 mm
09:43 -17.4 °C -17.2 °C 33890.5 hPa West 9.3 km/h 20.3 km/h 98 % 0 mm
09:48 -17.4 °C -17.2 °C 33890.5 hPa West 11.1 km/h 20.3 km/h 98 % 0 mm
09:52 -17.4 °C -17.2 °C 33890.5 hPa WSW 10.3 km/h 19.2 km/h 98 % 0 mm
09:53 -17.4 °C -17.2 °C 33890.5 hPa SW 9.3 km/h 19.2 km/h 98 % 0 mm
09:58 -17.3 °C -17.2 °C 33890.5 hPa West 6.4 km/h 19.2 km/h 98 % 0 mm
09:59 -17.3 °C -17.2 °C 33890.5 hPa West 14.5 km/h 19.2 km/h 98 % 0 mm
10:04 -17.3 °C -17.2 °C 33890.5 hPa WSW 5.6 km/h 18.7 km/h 98 % 0 mm
10:05 -17.3 °C -17.2 °C 33890.5 hPa West 16.3 km/h 18.7 km/h 98 % 0 mm
10:10 -17.2 °C -17.2 °C 33890.5 hPa WSW 12.2 km/h 22.5 km/h 98 % 0 mm
10:11 -17.2 °C -17.2 °C 33890.5 hPa West 10.3 km/h 22.5 km/h 98 % 0 mm
10:15 -17.1 °C -17.2 °C 33890.5 hPa WSW 8 km/h 22.5 km/h 98 % 0 mm
10:20 -17 °C -17.2 °C 33890.5 hPa WSW 11.1 km/h 20.9 km/h 98 % 0 mm
10:21 -16.9 °C -16.7 °C 33890.5 hPa West 6.4 km/h 20.9 km/h 98 % 0 mm
10:26 -16.8 °C -16.7 °C 33890.5 hPa WSW 16.3 km/h 22 km/h 98 % 0 mm
10:28 -16.8 °C -16.7 °C 33890.5 hPa WSW 9.8 km/h 22 km/h 98 % 0 mm
10:32 -16.7 °C -16.7 °C 33890.5 hPa WNW 14 km/h 22 km/h 98 % 0 mm
10:35 -16.7 °C -16.7 °C 33890.5 hPa Calm   22 km/h 98 % 0 mm
10:40 -16.6 °C -16.7 °C 33890.5 hPa West 6.9 km/h 20.3 km/h 98 % 0 mm
10:41 -16.6 °C -16.7 °C 33856.6 hPa West 14.5 km/h 20.3 km/h 98 % 0 mm
10:46 -16.4 °C -16.1 °C 33856.6 hPa West 10.3 km/h 25.4 km/h 98 % 0 mm
10:48 -16.4 °C -16.1 °C 33856.6 hPa West 12.7 km/h 25.4 km/h 98 % 0 mm
10:53 -16.3 °C -16.1 °C 33856.6 hPa Calm   22 km/h 98 % 0 mm
10:55 -16.3 °C -16.1 °C 33856.6 hPa WSW 15 km/h 22 km/h 98 % 0 mm
11:00 -16.1 °C -16.1 °C 33890.5 hPa West 12.7 km/h 24.3 km/h 98 % 0 mm
11:05 -16.1 °C -16.1 °C 33890.5 hPa West 23 km/h 24.3 km/h 98 % 0 mm
11:10 -15.9 °C -16.1 °C 33856.6 hPa WSW 14 km/h 23 km/h 98 % 0 mm
11:14 -15.9 °C -16.1 °C 33856.6 hPa West 9.3 km/h 23 km/h 98 % 0 mm
11:16 -15.9 °C -16.1 °C 33856.6 hPa West 10.3 km/h 22 km/h 98 % 0 mm
11:21 -15.8 °C -15.6 °C 33856.6 hPa WSW 24.8 km/h 29 km/h 98 % 0 mm
11:24 -15.8 °C -15.6 °C 33856.6 hPa West 15 km/h 29 km/h 98 % 0 mm
11:26 -15.8 °C -16.1 °C 33856.6 hPa West 15.6 km/h 29 km/h 97 % 0 mm
11:31 -15.7 °C -16.1 °C 33856.6 hPa West 15 km/h 27.7 km/h 97 % 0 mm
11:33 -15.6 °C -15.6 °C 33856.6 hPa West 14.5 km/h 27.7 km/h 97 % 0 mm
11:37 -15.5 °C -15.6 °C 33856.6 hPa SW 19.2 km/h 27.7 km/h 96 % 0 mm
11:38 -15.5 °C -15.6 °C 33856.6 hPa SW 19.2 km/h 27.7 km/h 96 % 0 mm
11:43 -15.5 °C -16.1 °C 33890.5 hPa West 20.3 km/h 26.7 km/h 95 % 0 mm
11:48 -15.4 °C -16.1 °C 33890.5 hPa West 32.3 km/h 33.2 km/h 94 % 0 mm
11:49 -15.4 °C -16.1 °C 33890.5 hPa West 27.2 km/h 33.2 km/h 94 % 0 mm
11:51 -15.4 °C -16.1 °C 33890.5 hPa WNW 8 km/h 33.2 km/h 93 % 0 mm
11:56 -15.3 °C -16.1 °C 33890.5 hPa West 14.5 km/h 33.2 km/h 92 % 0 mm
11:58 -15.3 °C -16.1 °C 33890.5 hPa West 20.3 km/h 33.2 km/h 92 % 0 mm
11:59 -15.3 °C -16.1 °C 33890.5 hPa West 27.7 km/h 28.5 km/h 92 % 0 mm
12:04 -15.2 °C -16.1 °C 33890.5 hPa West 22.5 km/h 34.1 km/h 90 % 0 mm
12:10 -15.2 °C -16.1 °C 33890.5 hPa WSW 19.2 km/h 34.1 km/h 89 % 0 mm
12:15 -15.2 °C -16.1 °C 33890.5 hPa West 8.9 km/h 33.2 km/h 88 % 0 mm
12:17 -15.1 °C -16.1 °C 33890.5 hPa WSW 23 km/h 33.2 km/h 87 % 0 mm
12:25 -15.1 °C -16.1 °C 33890.5 hPa West 22.5 km/h 28.5 km/h 87 % 0 mm
12:26 -15 °C -16.1 °C 33890.5 hPa WSW 15 km/h 28.5 km/h 86 % 0 mm
12:31 -15 °C -16.1 °C 33890.5 hPa West 19.6 km/h 34.1 km/h 86 % 0 mm
12:36 -15 °C -16.1 °C 33890.5 hPa SW 38.3 km/h 39.4 km/h 84 % 0 mm
12:40 -14.9 °C -16.1 °C 33890.5 hPa West 20.9 km/h 39.4 km/h 83 % 0 mm
12:43 -14.9 °C -16.1 °C 33890.5 hPa WSW 22.5 km/h 39.4 km/h 83 % 0 mm
12:48 -14.9 °C -16.7 °C 33890.5 hPa WSW 15.6 km/h 33.2 km/h 81 % 0 mm
12:49 -14.9 °C -16.1 °C 33890.5 hPa West 14.5 km/h 33.2 km/h 82 % 0 mm
12:54 -14.9 °C -16.7 °C 33890.5 hPa WSW 26.2 km/h 34.1 km/h 81 % 0 mm
12:59 -14.9 °C -16.7 °C 33890.5 hPa West 34.1 km/h 34.1 km/h 80 % 0 mm
13:01 -14.8 °C -16.7 °C 33890.5 hPa West 27.2 km/h 34.1 km/h 79 % 0 mm
13:02 -14.8 °C -16.7 °C 33890.5 hPa West 22.5 km/h 34.1 km/h 79 % 0 mm
13:06 -14.8 °C -16.7 °C 33890.5 hPa WSW 33.2 km/h 34.1 km/h 79 % 0 mm
13:11 -14.7 °C -16.1 °C 33924.3 hPa WSW 20.3 km/h 33.2 km/h 79 % 0 mm
13:16 -14.7 °C -16.1 °C 33924.3 hPa WSW 33.6 km/h 33.6 km/h 79 % 0 mm
13:21 -14.7 °C -16.1 °C 33924.3 hPa WSW 27.2 km/h 33.6 km/h 79 % 0 mm
13:26 -14.7 °C -16.7 °C 33924.3 hPa West 22 km/h 33.6 km/h 76 % 0 mm
13:27 -14.7 °C -16.7 °C 33924.3 hPa WSW 22 km/h 32.3 km/h 76 % 0 mm
13:35 -14.6 °C -16.7 °C 33924.3 hPa WSW 26.7 km/h 27.2 km/h 77 % 0 mm
13:38 -14.6 °C -16.1 °C 33924.3 hPa WSW 22 km/h 34.8 km/h 77 % 0 mm
13:40 -14.6 °C -16.7 °C 33924.3 hPa WSW 23 km/h 34.8 km/h 76 % 0 mm
13:45 -14.6 °C -16.7 °C 33924.3 hPa West 20.9 km/h 34.8 km/h 76 % 0 mm
13:50 -14.6 °C -16.7 °C 33924.3 hPa WSW 18.7 km/h 34.1 km/h 76 % 0 mm
13:52 -14.6 °C -16.7 °C 33924.3 hPa West 22 km/h 34.1 km/h 76 % 0 mm
13:57 -14.6 °C -16.7 °C 33924.3 hPa WSW 20.9 km/h 31.9 km/h 75 % 0 mm
14:02 -14.4 °C -16.7 °C 33924.3 hPa West 16.9 km/h 28.5 km/h 75 % 0 mm
14:03 -14.4 °C -16.7 °C 33924.3 hPa West 22 km/h 28.5 km/h 75 % 0 mm
14:08 -14.5 °C -16.7 °C 33924.3 hPa West 19.2 km/h 28.5 km/h 75 % 0 mm
14:13 -14.4 °C -16.7 °C 33924.3 hPa West 15.6 km/h 31.9 km/h 75 % 0 mm
14:18 -14.4 °C -16.7 °C 33924.3 hPa West 16.9 km/h 31.9 km/h 75 % 0 mm
14:23 -14.3 °C -16.1 °C 33924.3 hPa WNW 31.4 km/h 31.4 km/h 75 % 0 mm
14:24 -14.4 °C -16.7 °C 33924.3 hPa West 32.3 km/h 32.3 km/h 74 % 0 mm
14:29 -14.3 °C -16.7 °C 33924.3 hPa WSW 15.6 km/h 32.3 km/h 73 % 0 mm
14:34 -14.3 °C -16.7 °C 33924.3 hPa WSW 20.3 km/h 28.5 km/h 74 % 0 mm
14:40 -14.3 °C -16.7 °C 33924.3 hPa West 22.5 km/h 32.3 km/h 72 % 0 mm
14:41 -14.3 °C -16.7 °C 33924.3 hPa West 20.3 km/h 32.3 km/h 72 % 0 mm
14:46 -14.3 °C -16.7 °C 33924.3 hPa SW 22.5 km/h 32.3 km/h 72 % 0 mm
14:49 -14.3 °C -16.7 °C 33924.3 hPa WNW 24.8 km/h 40.7 km/h 72 % 0 mm
14:52 -14.3 °C -16.7 °C 33924.3 hPa WSW 11.1 km/h 40.7 km/h 71 % 0 mm
14:57 -14.3 °C -16.7 °C 33924.3 hPa WSW 19.2 km/h 40.7 km/h 72 % 0 mm
14:58 -14.3 °C -16.7 °C 33924.3 hPa West 20.9 km/h 31.4 km/h 72 % 0 mm
15:05 -14.3 °C -16.7 °C 33924.3 hPa West 20.3 km/h 34.1 km/h 72 % 0 mm
15:07 -14.3 °C -16.7 °C 33924.3 hPa West 19.6 km/h 34.1 km/h 72 % 0 mm
15:11 -14.3 °C -16.7 °C 33924.3 hPa West 16.3 km/h 32.3 km/h 73 % 0 mm
15:13 -14.3 °C -16.7 °C 33924.3 hPa West 28.5 km/h 32.3 km/h 72 % 0 mm
15:16 -14.3 °C -16.7 °C 33924.3 hPa West 19.6 km/h 29.5 km/h 72 % 0 mm
15:21 -14.4 °C -16.7 °C 33924.3 hPa WNW 14 km/h 33.6 km/h 72 % 0 mm
15:26 -14.3 °C -16.7 °C 33958.2 hPa WSW 20.3 km/h 33.6 km/h 72 % 0 mm
15:28 -14.4 °C -16.7 °C 33958.2 hPa West 27.7 km/h 33.6 km/h 72 % 0 mm
15:33 -14.4 °C -16.7 °C 33958.2 hPa West 28.5 km/h 33.6 km/h 72 % 0 mm
15:35 -14.4 °C -16.7 °C 33958.2 hPa WSW 16.3 km/h 33.6 km/h 72 % 0 mm
15:36 -14.4 °C -16.7 °C 33958.2 hPa West 16.9 km/h 33.6 km/h 72 % 0 mm
15:41 -14.4 °C -16.7 °C 33958.2 hPa West 20.3 km/h 31.9 km/h 73 % 0 mm
15:42 -14.4 °C -16.7 °C 33958.2 hPa West 6.4 km/h 31.9 km/h 73 % 0 mm
15:46 -14.4 °C -16.7 °C 33958.2 hPa WSW 14.5 km/h 26.2 km/h 74 % 0 mm
15:50 -14.5 °C -16.7 °C 33958.2 hPa West 6.4 km/h 20.3 km/h 74 % 0 mm
15:55 -14.6 °C -16.7 °C 33958.2 hPa West 4.2 km/h 16.3 km/h 75 % 0 mm
15:56 -14.6 °C -16.7 °C 33958.2 hPa West 2.9 km/h 16.3 km/h 75 % 0 mm
16:01 -14.7 °C -16.7 °C 33958.2 hPa West 16.9 km/h 27.7 km/h 74 % 0 mm
16:02 -14.7 °C -16.7 °C 33958.2 hPa WSW 15.6 km/h 27.7 km/h 74 % 0 mm
16:04 -14.8 °C -17.2 °C 33958.2 hPa West 15 km/h 27.7 km/h 74 % 0 mm
16:08 -14.8 °C -17.2 °C 33958.2 hPa West 14 km/h 22 km/h 74 % 0 mm
16:11 -14.9 °C -17.2 °C 33958.2 hPa West 12.2 km/h 17.9 km/h 74 % 0 mm
16:13 -15 °C -17.2 °C 33958.2 hPa West 9.8 km/h 17.9 km/h 75 % 0 mm
16:18 -15.1 °C -17.2 °C 33958.2 hPa Calm   16.3 km/h 75 % 0 mm
16:23 -15.2 °C -17.2 °C 33958.2 hPa WSW 14.5 km/h 18.7 km/h 75 % 0 mm
16:25 -15.2 °C -17.2 °C 33958.2 hPa WSW 15.6 km/h 18.7 km/h 76 % 0 mm
16:29 -15.3 °C -17.2 °C 33958.2 hPa West 11.1 km/h 20.3 km/h 76 % 0 mm
16:30 -15.3 °C -17.2 °C 33958.2 hPa West 11.1 km/h 20.3 km/h 76 % 0 mm
16:35 -15.4 °C -17.2 °C 33958.2 hPa WSW 16.3 km/h 16.9 km/h 76 % 0 mm
16:39 -15.5 °C -17.8 °C 33958.2 hPa West 14.5 km/h 16.9 km/h 76 % 0 mm
16:44 -15.6 °C -17.2 °C 33924.3 hPa Calm   16.9 km/h 77 % 0 mm
16:50 -15.8 °C -17.8 °C 33924.3 hPa Calm   12.2 km/h 77 % 0 mm
16:52 -15.9 °C -17.8 °C 33924.3 hPa Calm   9.8 km/h 77 % 0 mm
16:58 -16.1 °C -17.8 °C 33958.2 hPa Calm   9.8 km/h 77 % 0 mm
17:01 -16.1 °C -17.8 °C 33958.2 hPa West 8 km/h 8.9 km/h 78 % 0 mm
17:06 -16.2 °C -17.8 °C 33958.2 hPa Calm   9.8 km/h 79 % 0 mm
17:08 -16.2 °C -17.8 °C 33958.2 hPa Calm   11.1 km/h 79 % 0 mm
17:13 -16.3 °C -17.8 °C 33992.1 hPa WSW 9.8 km/h 11.1 km/h 79 % 0 mm
17:18 -16.4 °C -17.8 °C 33992.1 hPa Calm   9.8 km/h 80 % 0 mm
17:19 -16.4 °C -17.8 °C 33992.1 hPa Calm   9.8 km/h 80 % 0 mm
17:24 -16.6 °C -18.3 °C 33992.1 hPa Calm   8.9 km/h 80 % 0 mm
17:28 -16.7 °C -18.3 °C 33992.1 hPa Calm   6.9 km/h 80 % 0 mm
17:33 -16.7 °C -18.3 °C 33992.1 hPa West 12.7 km/h 12.7 km/h 81 % 0 mm
17:37 -16.7 °C -18.3 °C 33992.1 hPa WSW 12.7 km/h 14.5 km/h 82 % 0 mm
17:38 -16.7 °C -18.3 °C 33992.1 hPa WSW 15 km/h 15 km/h 83 % 0 mm
17:44 -16.7 °C -17.8 °C 33992.1 hPa West 14 km/h 19.2 km/h 84 % 0 mm
17:49 -16.7 °C -17.8 °C 33992.1 hPa WSW 14 km/h 19.2 km/h 85 % 0 mm
17:50 -16.7 °C -17.8 °C 33992.1 hPa West 11.1 km/h 19.2 km/h 85 % 0 mm
17:51 -16.7 °C -17.8 °C 33992.1 hPa West 2.3 km/h 19.2 km/h 85 % 0 mm
17:56 -16.6 °C -17.8 °C 33992.1 hPa Calm   16.3 km/h 86 % 0 mm
17:58 -16.6 °C -17.2 °C 33992.1 hPa West 12.7 km/h 16.3 km/h 87 % 0 mm
18:01 -16.6 °C -17.2 °C 33992.1 hPa WSW 12.7 km/h 16.3 km/h 87 % 0 mm
18:06 -16.7 °C -17.8 °C 33992.1 hPa Calm   15.6 km/h 86 % 0 mm
18:07 -16.7 °C -17.8 °C 33992.1 hPa Calm   15 km/h 86 % 0 mm
18:12 -16.7 °C -17.8 °C 34029.3 hPa Calm   12.7 km/h 87 % 0 mm
18:15 -16.7 °C -17.8 °C 34029.3 hPa Calm   4.2 km/h 87 % 0 mm
18:19 -16.8 °C -17.8 °C 34029.3 hPa Calm   4.2 km/h 86 % 0 mm
18:24 -16.9 °C -17.8 °C 34029.3 hPa Calm     86 % 0 mm
18:29 -17.1 °C -18.3 °C 34029.3 hPa Calm     86 % 0 mm
18:34 -17.2 °C -18.3 °C 34029.3 hPa Calm     86 % 0 mm
18:35 -17.2 °C -18.3 °C 34029.3 hPa Calm     86 % 0 mm
18:40 -17.2 °C -18.3 °C 34029.3 hPa Calm     86 % 0 mm
18:41 -17.3 °C -18.3 °C 34029.3 hPa SW 6.4 km/h 6.4 km/h 87 % 0 mm
18:46 -17.3 °C -18.3 °C 34029.3 hPa Calm   6.9 km/h 87 % 0 mm
18:50 -17.4 °C -18.3 °C 34029.3 hPa Calm   6.9 km/h 87 % 0 mm
18:55 -17.4 °C -18.3 °C 34029.3 hPa Calm     88 % 0 mm
18:56 -17.4 °C -18.3 °C 34029.3 hPa Calm     88 % 0 mm
19:01 -17.4 °C -18.3 °C 34029.3 hPa Calm   7.6 km/h 89 % 0 mm
19:05 -17.4 °C -18.3 °C 34029.3 hPa Calm   7.6 km/h 89 % 0 mm
19:07 -17.4 °C -18.3 °C 34029.3 hPa Calm   7.6 km/h 89 % 0 mm
19:10 -17.4 °C -18.3 °C 34029.3 hPa Calm     89 % 0 mm
19:14 -17.4 °C -18.3 °C 33992.1 hPa Calm     89 % 0 mm
19:16 -17.4 °C -18.3 °C 33992.1 hPa Calm     89 % 0 mm
19:21 -17.4 °C -18.3 °C 33992.1 hPa Calm     90 % 0 mm
19:22 -17.4 °C -18.3 °C 33992.1 hPa Calm     90 % 0 mm
19:26 -17.5 °C -18.3 °C 34029.3 hPa Calm     90 % 0 mm
19:31 -17.4 °C -18.3 °C 34029.3 hPa Calm     90 % 0 mm
19:40 -17.5 °C -17.8 °C 34029.3 hPa Calm     91 % 0 mm
19:43 -17.4 °C -17.8 °C 33992.1 hPa Calm   3.4 km/h 91 % 0 mm
19:48 -17.3 °C -17.8 °C 33992.1 hPa West 9.3 km/h 14.5 km/h 92 % 0 mm
19:49 -17.3 °C -17.8 °C 33992.1 hPa West 6.9 km/h 14.5 km/h 92 % 0 mm
19:54 -17.3 °C -17.8 °C 33992.1 hPa West 12.7 km/h 14.5 km/h 93 % 0 mm
19:58 -17.3 °C -17.8 °C 34029.3 hPa West 11.1 km/h 14.5 km/h 93 % 0 mm
20:03 -17.3 °C -17.8 °C 34029.3 hPa West 11.1 km/h 14.5 km/h 93 % 0 mm
20:07 -17.3 °C -17.8 °C 34029.3 hPa Calm   14.5 km/h 93 % 0 mm
20:12 -17.3 °C -17.8 °C 34063.2 hPa West 5.1 km/h 14.5 km/h 93 % 0 mm
20:16 -17.3 °C -17.8 °C 34063.2 hPa Calm   14 km/h 92 % 0 mm
20:21 -17.4 °C -17.8 °C 34063.2 hPa Calm   9.8 km/h 92 % 0 mm
20:26 -17.4 °C -17.8 °C 34063.2 hPa West 6.4 km/h 9.8 km/h 92 % 0 mm
20:31 -17.4 °C -17.8 °C 34063.2 hPa Calm   10.3 km/h 92 % 0 mm
20:33 -17.5 °C -17.8 °C 34063.2 hPa Calm   12.2 km/h 92 % 0 mm
20:38 -17.6 °C -18.3 °C 34063.2 hPa Calm   12.2 km/h 92 % 0 mm
20:40 -17.6 °C -18.3 °C 34063.2 hPa Calm   12.2 km/h 92 % 0 mm
20:45 -17.6 °C -18.3 °C 34063.2 hPa Calm   8.9 km/h 92 % 0 mm
20:46 -17.6 °C -18.3 °C 34063.2 hPa West 10.3 km/h 10.3 km/h 92 % 0 mm
20:52 -17.5 °C -17.8 °C 34063.2 hPa Calm   11.1 km/h 93 % 0 mm
20:57 -17.5 °C -17.8 °C 34063.2 hPa West 8.9 km/h 11.6 km/h 93 % 0 mm
21:01 -17.5 °C -17.8 °C 34063.2 hPa WSW 10.3 km/h 11.6 km/h 93 % 0 mm
21:07 -17.5 °C -17.8 °C 34063.2 hPa West 9.8 km/h 12.7 km/h 93 % 0 mm
21:12 -17.4 °C -17.8 °C 34063.2 hPa Calm   12.2 km/h 94 % 0 mm
21:15 -17.4 °C -17.8 °C 34063.2 hPa Calm   11.1 km/h 94 % 0 mm
21:20 -17.6 °C -17.8 °C 34063.2 hPa Calm   8.9 km/h 93 % 0 mm
21:25 -17.6 °C -17.8 °C 34063.2 hPa Calm     93 % 0 mm
21:27 -17.6 °C -17.8 °C 34063.2 hPa Calm     93 % 0 mm
21:32 -17.7 °C -18.3 °C 34063.2 hPa Calm     93 % 0 mm
21:37 -17.7 °C -18.3 °C 34063.2 hPa Calm     92 % 0 mm
21:40 -17.7 °C -18.3 °C 34097 hPa Calm     93 % 0 mm
21:42 -17.7 °C -18.3 °C 34097 hPa Calm     93 % 0 mm
21:47 -17.7 °C -18.3 °C 34097 hPa Calm     93 % 0 mm
21:50 -17.6 °C -17.8 °C 34097 hPa Calm     94 % 0 mm
21:55 -17.6 °C -17.8 °C 34097 hPa Calm     94 % 0 mm
22:00 -17.6 °C -17.8 °C 34097 hPa Calm     94 % 0 mm
22:05 -17.6 °C -17.8 °C 34097 hPa Calm     94 % 0 mm
22:06 -17.6 °C -17.8 °C 34097 hPa Calm     94 % 0 mm
22:07 -17.6 °C -17.8 °C 34097 hPa Calm     94 % 0 mm
22:12 -17.6 °C -17.8 °C 34097 hPa Calm     94 % 0 mm
22:13 -17.6 °C -17.8 °C 34097 hPa Calm     94 % 0 mm
22:18 -17.7 °C -18.3 °C 34097 hPa Calm     94 % 0 mm
22:22 -17.7 °C -18.3 °C 34097 hPa Calm     94 % 0 mm
22:26 -17.6 °C -17.8 °C 34097 hPa West 6.9 km/h 6.9 km/h 94 % 0 mm
22:30 -17.6 °C -17.8 °C 34097 hPa Calm   10.3 km/h 94 % 0 mm
22:33 -17.6 °C -17.8 °C 34097 hPa West 4.2 km/h 10.3 km/h 94 % 0 mm
22:34 -17.6 °C -17.8 °C 34097 hPa Calm   10.3 km/h 94 % 0 mm
22:36 -17.6 °C -17.8 °C 34097 hPa West 8 km/h 10.3 km/h 94 % 0 mm
22:41 -17.6 °C -17.8 °C 34097 hPa Calm   10.3 km/h 95 % 0 mm
22:43 -17.6 °C -17.8 °C 34097 hPa Calm   10.3 km/h 95 % 0 mm
22:48 -17.6 °C -17.8 °C 34097 hPa Calm   9.8 km/h 95 % 0 mm
22:53 -17.6 °C -17.8 °C 34097 hPa Calm   9.3 km/h 94 % 0 mm
22:58 -17.6 °C -17.8 °C 34097 hPa Calm   10.3 km/h 94 % 0 mm
22:59 -17.6 °C -17.8 °C 34097 hPa West 2.9 km/h 10.3 km/h 94 % 0 mm
23:04 -17.6 °C -17.8 °C 34097 hPa West 5.6 km/h 10.3 km/h 94 % 0 mm
23:06 -17.7 °C -18.3 °C 34097 hPa Calm   10.3 km/h 94 % 0 mm
23:11 -17.8 °C -18.9 °C 34063.2 hPa Calm   8.9 km/h 93 % 0 mm
23:13 -17.8 °C -18.9 °C 34063.2 hPa Calm   8.9 km/h 93 % 0 mm
23:17 -17.9 °C -18.9 °C 34063.2 hPa Calm     92 % 0 mm
23:22 -18.1 °C -19.4 °C 34063.2 hPa Calm     91 % 0 mm
23:24 -18.2 °C -19.4 °C 34063.2 hPa Calm     91 % 0 mm
23:29 -18.3 °C -19.4 °C 34097 hPa Calm   6.4 km/h 91 % 0 mm
23:34 -18.3 °C -19.4 °C 34097 hPa Calm   6.4 km/h 91 % 0 mm
23:39 -18.3 °C -19.4 °C 34097 hPa WSW 10.3 km/h 10.3 km/h 93 % 0 mm
23:40 -18.3 °C -19.4 °C 34097 hPa SW 7.6 km/h 10.3 km/h 92 % 0 mm
23:41 -18.3 °C -19.4 °C 34063.2 hPa Calm   10.3 km/h 93 % 0 mm
23:46 -18.2 °C -19.4 °C 34063.2 hPa Calm   11.1 km/h 94 % 0 mm
23:47 -18.2 °C -19.4 °C 34063.2 hPa Calm   11.1 km/h 94 % 0 mm
23:52 -18.2 °C -18.9 °C 34063.2 hPa Calm   11.1 km/h 95 % 0 mm
23:53 -18.2 °C -18.9 °C 34063.2 hPa Calm   11.1 km/h 95 % 0 mm
23:58 -18.2 °C -18.9 °C 34097 hPa Calm     95 % 0 mm
Le Gheer Warneton
Courtoisie de Weather Underground - 2.75 mb

Mise a jour : 24/02/2018 22:47:11
Généré par Cumulus 1.9.4 (1099)